�N����,����,����,����,����,�C��,���x,�~����,�S�V����,�ő�u�ԕ���,,,,,
,,,,,,,,,����,����,����,�N��,,
yyyy/mm/dd,hh:mm:ss,(16),16����,m/s,��,%,mm,KW/�u,(16),16����,m/s,Time,,
2020/2/1,1:00:00,16,�k,5.4,-0.7,70.9,0,0,1,�k�k��,13.3,49,,
2020/2/1,2:00:00,16,�k,4.6,-0.9,71.4,0,0,16,�k,13.5,11,,
2020/2/1,3:00:00,16,�k,3.7,-0.9,70.3,0,0,15,�k�k��,9.1,28,,
2020/2/1,4:00:00,15,�k�k��,3.6,-0.9,67.7,0,0,15,�k�k��,7.9,10,,
2020/2/1,5:00:00,16,�k,4.1,-1.3,69.4,0,0,16,�k,7.8,53,,
2020/2/1,6:00:00,15,�k�k��,2.1,-1.8,69,0,0,15,�k�k��,7,34,,
2020/2/1,7:00:00,15,�k�k��,2.3,-1.9,69.1,0,0.01,16,�k,4.4,46,,
2020/2/1,8:00:00,16,�k,1.8,-1.8,68.9,0,0.09,15,�k�k��,3.9,26,,
2020/2/1,9:00:00,16,�k,4.6,-1.4,66.3,0,0.21,1,�k�k��,7.2,59,,
2020/2/1,10:00:00,1,�k�k��,5,-0.5,62,0,0.51,1,�k�k��,8.6,31,,
2020/2/1,11:00:00,1,�k�k��,4,-1,60.9,0,0.41,3,���k��,7.9,6,,
2020/2/1,12:00:00,1,�k�k��,3.7,-0.6,59.3,0,0.46,1,�k�k��,7.1,25,,
2020/2/1,13:00:00,1,�k�k��,3.2,-0.5,59.2,0,0.37,2,�k��,6.3,15,,
2020/2/1,14:00:00,2,�k��,3.2,-0.9,60.3,0,0.3,16,�k,5.5,31,,
2020/2/1,15:00:00,1,�k�k��,2.2,-0.8,61.6,0,0.18,2,�k��,4.6,9,,
2020/2/1,16:00:00,1,�k�k��,1.2,-1.3,65.1,0,0.06,3,���k��,4.3,4,,
2020/2/1,17:00:00,4,��,2,-2.1,73.7,0,0.01,4,��,3.7,53,,
2020/2/1,18:00:00,1,�k�k��,2.2,-2.1,68.4,0,0,1,�k�k��,3.2,51,,
2020/2/1,19:00:00,1,�k�k��,2.3,-2.7,68.1,0,0,1,�k�k��,4.1,7,,
2020/2/1,20:00:00,1,�k�k��,1.9,-3.2,70.6,0,0,1,�k�k��,3.8,8,,
2020/2/1,21:00:00,1,�k�k��,1,-3.6,72.9,0,0,1,�k�k��,3,14,,
2020/2/1,22:00:00,14,�k��,1.2,-3.9,71.7,0,0,14,�k��,1.9,57,,
2020/2/1,23:00:00,15,�k�k��,1.4,-4.1,73.7,0,0,14,�k��,2.5,52,,
2020/2/1,0:00:00,15,�k�k��,1,-4.4,74.9,0,0,15,�k�k��,2.4,17,,
2020/2/2,1:00:00,15,�k�k��,0.4,-4.7,78.7,0,0,16,�k,2.3,14,,
2020/2/2,2:00:00,15,�k�k��,0.4,-4.7,77.2,0,0,14,�k��,1.5,52,,
2020/2/2,3:00:00,14,�k��,1,-5,76.8,0,0,15,�k�k��,1.8,51,,
2020/2/2,4:00:00,14,�k��,1.1,-5.6,77.7,0,0,14,�k��,2.5,40,,
2020/2/2,5:00:00,14,�k��,1,-6.6,80.8,0,0,13,���k��,2.2,37,,
2020/2/2,6:00:00,14,�k��,1.6,-7,78.4,0,0,15,�k�k��,2.8,45,,
2020/2/2,7:00:00,14,�k��,1.6,-7,79.5,0,0.01,14,�k��,3.1,12,,
2020/2/2,8:00:00,14,�k��,2.6,-6.7,76.9,0,0.05,14,�k��,3.9,0,,
2020/2/2,9:00:00,14,�k��,2.5,-5.6,71.3,0,0.16,14,�k��,4.2,37,,
2020/2/2,10:00:00,14,�k��,0.9,-3.9,63,0,0.35,14,�k��,3.7,4,,
2020/2/2,11:00:00,-1.7,#N/A,62,0,0.6,,,,,,,,
2020/2/2,12:00:00,16,�É�,0,-1.7,56.8,0,0.64,13,���k��,2.5,18,,
2020/2/2,13:00:00,10,�쐼,2,-1.7,53.9,0,0.62,10,�쐼,3.4,56,,
2020/2/2,14:00:00,9,��쐼,1.9,-1.3,57.5,0,0.53,9,��쐼,4.2,2,,
2020/2/2,15:00:00,9,��쐼,2.6,-2.1,65.4,0,0.39,8,��,4.5,12,,
2020/2/2,16:00:00,9,��쐼,1.9,-2.4,73,0,0.21,10,�쐼,3.8,21,,
2020/2/2,17:00:00,10,�쐼,0.9,-3.8,81.2,0,0.03,9,��쐼,3.2,3,,
2020/2/2,18:00:00,12,��,0.8,-6.8,92.6,0,0,10,�쐼,3.5,22,,
2020/2/2,19:00:00,14,�k��,0.8,-9.2,94,0,0,13,���k��,2.4,54,,
2020/2/2,20:00:00,13,���k��,1.1,-10.8,92.4,0,0,13,���k��,2.4,11,,
2020/2/2,21:00:00,13,���k��,1.1,-9.6,92.1,0,0,14,�k��,2,51,,
2020/2/2,22:00:00,14,�k��,2.7,-9.2,88.8,0,0,14,�k��,3.9,54,,
2020/2/2,23:00:00,13,���k��,1.7,-10.2,91.7,0,0,14,�k��,3.3,8,,
2020/2/2,0:00:00,14,�k��,1.2,-10.5,92.5,0,0,14,�k��,3.3,37,,
2020/2/3,1:00:00,13,���k��,2.8,-10.1,92.9,0,0,14,�k��,3.6,52,,
2020/2/3,2:00:00,14,�k��,2.5,-9.9,92.1,0,0,14,�k��,3.8,47,,
2020/2/3,3:00:00,13,���k��,2.1,-10,90,0,0,14,�k��,3.2,21,,
2020/2/3,4:00:00,14,�k��,2.3,-11.1,91.5,0,0,13,���k��,3.4,4,,
2020/2/3,5:00:00,13,���k��,2.5,-12.7,91.8,0,0,14,�k��,3.7,36,,
2020/2/3,6:00:00,13,���k��,2,-13.8,92.2,0,0,13,���k��,3.4,0,,
2020/2/3,7:00:00,13,���k��,2.5,-12.7,92,0,0.01,13,���k��,3.6,59,,
2020/2/3,8:00:00,14,�k��,2,-12.2,89.2,0,0.06,14,�k��,4.4,4,,
2020/2/3,9:00:00,15,�k�k��,0.9,-11.1,85.6,0,0.16,14,�k��,2.3,1,,
2020/2/3,10:00:00,13,���k��,1.4,-7.7,81.9,0,0.3,14,�k��,2.1,52,,
2020/2/3,11:00:00,16,�É�,0,-5.4,75.8,0,0.29,13,���k��,2.5,20,,
2020/2/3,12:00:00,2,�k��,1.7,-2.4,66.6,0,0.34,1,�k�k��,3.2,26,,
2020/2/3,13:00:00,3,���k��,4.1,-3.2,83.4,0,0.23,3,���k��,6.2,58,,
2020/2/3,14:00:00,1,�k�k��,2.4,-4.2,94.9,0,0.09,3,���k��,5.5,19,,
2020/2/3,15:00:00,16,�k,1.5,-3.9,96.4,0,0.08,2,�k��,3.1,7,,
2020/2/3,16:00:00,14,�k��,2.9,-4.4,96.6,0,0.03,14,�k��,5,56,,
2020/2/3,17:00:00,14,�k��,4.7,-4.9,97.2,0,0.01,14,�k��,6.9,31,,
2020/2/3,18:00:00,14,�k��,2.6,-5,96.8,0,0,14,�k��,7.8,6,,
2020/2/3,19:00:00,14,�k��,5,-4.8,96,0,0,13,���k��,9.4,42,,
2020/2/3,20:00:00,14,�k��,4.6,-4,94.5,0,0,14,�k��,9,7,,
2020/2/3,21:00:00,14,�k��,3.6,-4.2,91.2,0,0,15,�k�k��,7.6,13,,
2020/2/3,22:00:00,14,�k��,2.8,-5.4,91.8,0,0,14,�k��,6.2,1,,
2020/2/3,23:00:00,12,��,3.2,-8.8,96.5,0,0,14,�k��,4.3,1,,
2020/2/3,0:00:00,13,���k��,2.5,-11.5,90.9,0,0,14,�k��,3.8,58,,
2020/2/4,1:00:00,14,�k��,1.6,-14.3,90.1,0,0,12,��,3,1,,
2020/2/4,2:00:00,13,���k��,2.8,-12.8,94.6,0,0,12,��,3.7,51,,
2020/2/4,3:00:00,13,���k��,2.5,-14,93.5,0,0,12,��,5.5,21,,
2020/2/4,4:00:00,14,�k��,3.2,-11.3,96.7,0,0,14,�k��,4.6,59,,
2020/2/4,5:00:00,14,�k��,2.6,-16.9,89.5,0,0,14,�k��,4.6,0,,
2020/2/4,6:00:00,16,�k,2.4,-14.7,91.2,0,0,16,�k,3.7,57,,
2020/2/4,7:00:00,14,�k��,2.1,-18.6,88.1,0,0.01,16,�k,5.3,13,,
2020/2/4,8:00:00,13,���k��,2.5,-12.8,94.4,0,0.16,14,�k��,3.8,39,,
2020/2/4,9:00:00,12,��,2.5,-7.6,93.6,0,0.36,13,���k��,3.1,57,,
2020/2/4,10:00:00,14,�k��,0.7,-3.4,56.5,0,0.52,14,�k��,3,3,,
2020/2/4,11:00:00,13,���k��,5.2,-3.4,39.8,0,0.61,13,���k��,10,49,,
2020/2/4,12:00:00,13,���k��,7.4,-3.6,43.1,0,0.67,13,���k��,10.9,43,,
2020/2/4,13:00:00,13,���k��,3.8,-4.2,40.8,0.5,0.46,12,��,9.5,3,,
2020/2/4,14:00:00,14,�k��,4.2,-3.8,33.6,0.5,0.26,13,���k��,7.4,25,,
2020/2/4,15:00:00,14,�k��,2.5,-3.9,33.9,0,0.23,13,���k��,6.1,3,,
2020/2/4,16:00:00,16,�k,1.4,-5.8,44,0,0.17,11,���쐼,7.4,13,,
2020/2/4,17:00:00,6,�쓌,0.5,-10.9,46.1,0.5,0.04,15,�k�k��,3.2,27,,
2020/2/4,18:00:00,13,���k��,1.5,-16,81.7,0,0,13,���k��,2.7,37,,
2020/2/4,19:00:00,13,���k��,2.1,-17.8,80.3,0,0,13,���k��,3.4,37,,
2020/2/4,20:00:00,13,���k��,2.6,-15.6,88.9,0,0,12,��,3.7,49,,
2020/2/4,21:00:00,13,���k��,2.5,-16.1,90.6,0,0,12,��,3.5,10,,
2020/2/4,22:00:00,14,�k��,0.6,-16.2,91.4,0,0,12,��,3.7,21,,
2020/2/4,23:00:00,13,���k��,2.4,-18.2,89.5,0,0,13,���k��,3.7,59,,
2020/2/4,0:00:00,14,�k��,1,-16.5,90,0,0,15,�k�k��,6.8,53,,
2020/2/5,1:00:00,13,���k��,2.2,-15.7,86.8,0,0,13,���k��,3.7,20,,
2020/2/5,2:00:00,13,���k��,1.6,-14.8,88.3,0,0,14,�k��,3,21,,
2020/2/5,3:00:00,14,�k��,2.1,-12.7,82.3,0,0,14,�k��,4.5,6,,
2020/2/5,4:00:00,13,���k��,1.3,-12.1,87.4,0,0,14,�k��,3.1,37,,
2020/2/5,5:00:00,14,�k��,1.3,-10.5,88.8,0,0,14,�k��,3.2,23,,
2020/2/5,6:00:00,14,�k��,3,-9.7,91.2,0,0,14,�k��,4.8,42,,
2020/2/5,7:00:00,-9.2,#N/A,91.6,0,0.01,,,,,,,,
2020/2/5,8:00:00,15,�k�k��,1.2,-8.8,91.2,0,0.05,13,���k��,3.8,8,,
2020/2/5,9:00:00,16,�k,1.5,-7.6,91.7,0,0.1,14,�k��,3.3,33,,
2020/2/5,10:00:00,2,�k��,0.4,-6.8,89.1,0,0.17,13,���k��,16.9,3,,
2020/2/5,11:00:00,2,�k��,2.7,-7.2,80.1,0,0.22,2,�k��,4.9,50,,
2020/2/5,12:00:00,2,�k��,2.7,-6.3,64.3,0,0.33,2,�k��,5.1,19,,
2020/2/5,13:00:00,2,�k��,3.5,-5.5,53.1,0,0.49,2,�k��,6.2,35,,
2020/2/5,14:00:00,3,���k��,3.8,-5.9,69.1,0,0.49,3,���k��,5.8,53,,
2020/2/5,15:00:00,3,���k��,2.6,-6.3,71.9,0,0.28,3,���k��,5.4,21,,
2020/2/5,16:00:00,-7,#N/A,71.6,0,0.12,,,,,,,,
2020/2/5,17:00:00,14,�k��,0.5,-14.9,75.5,0,0.03,6,�쓌,6.8,16,,
2020/2/5,18:00:00,14,�k��,1.5,-13.8,89.6,0,0,13,���k��,2.2,38,,
2020/2/5,19:00:00,13,���k��,2,-13.3,92.3,0,0,14,�k��,2.6,0,,
2020/2/5,20:00:00,13,���k��,2.3,-13.9,81.7,0,0,13,���k��,3.6,7,,
2020/2/5,21:00:00,13,���k��,2.3,-16.1,86.8,0,0,12,��,3.1,52,,
2020/2/5,22:00:00,13,���k��,1.7,-13.8,92.1,0,0,13,���k��,2.7,48,,
2020/2/5,23:00:00,14,�k��,2.4,-10.7,90.7,0,0,14,�k��,4.1,57,,
2020/2/5,0:00:00,14,�k��,2.5,-11.7,82.3,0,0,15,�k�k��,3.7,54,,
2020/2/6,1:00:00,14,�k��,3.1,-11.9,74.3,0,0,14,�k��,5.2,57,,
2020/2/6,2:00:00,14,�k��,4.3,-11.4,72.1,0,0,14,�k��,7,38,,
2020/2/6,3:00:00,13,���k��,3.7,-14.5,78.6,0,0,14,�k��,7.1,2,,
2020/2/6,4:00:00,15,�k�k��,1.4,-14.2,71.9,0,0,14,�k��,6.1,10,,
2020/2/6,5:00:00,14,�k��,2.1,-14.4,72.6,0,0,14,�k��,6.5,41,,
2020/2/6,6:00:00,14,�k��,1.4,-15.6,76.9,0,0,11,���쐼,7.2,24,,
2020/2/6,7:00:00,14,�k��,1.9,-15.7,77.5,0,0.02,14,�k��,4,10,,
2020/2/6,8:00:00,13,���k��,2.8,-14.7,70.2,0,0.19,14,�k��,5.2,39,,
2020/2/6,9:00:00,13,���k��,1.9,-11.4,63.4,0,0.37,13,���k��,4.1,19,,
2020/2/6,10:00:00,15,�k�k��,3.9,-8.8,47.9,0,0.53,15,�k�k��,6.5,51,,
2020/2/6,11:00:00,15,�k�k��,3.3,-7.7,41.9,0,0.63,15,�k�k��,6.9,43,,
2020/2/6,12:00:00,15,�k�k��,4.6,-5.9,32.5,0,0.66,4,��,7.4,57,,
2020/2/6,13:00:00,15,�k�k��,5.5,-5.5,34.9,0,0.64,1,�k�k��,11.2,47,,
2020/2/6,14:00:00,15,�k�k��,5,-5.2,33.8,0,0.56,15,�k�k��,13.1,37,,
2020/2/6,15:00:00,16,�k,3.6,-5.3,39.7,0,0.42,15,�k�k��,10.5,23,,
2020/2/6,16:00:00,15,�k�k��,3.1,-5.8,44.7,0,0.23,14,�k��,8.4,16,,
2020/2/6,17:00:00,14,�k��,1.6,-8.7,54.4,0,0.04,14,�k��,7,3,,
2020/2/6,18:00:00,14,�k��,2.3,-9.9,62.5,0,0,14,�k��,3.5,38,,
2020/2/6,19:00:00,9,��쐼,0.5,-13.6,74.7,0,0,15,�k�k��,2.5,2,,
2020/2/6,20:00:00,12,��,0.8,-17.1,88.3,0,0,13,���k��,2.1,49,,
2020/2/6,21:00:00,13,���k��,1.2,-20.1,88.3,0,0,13,���k��,2.7,31,,
2020/2/6,22:00:00,13,���k��,1.9,-21.3,86.5,0,0,13,���k��,3.5,3,,
2020/2/6,23:00:00,13,���k��,2.5,-19.3,88.1,0,0,13,���k��,4.4,37,,
2020/2/6,0:00:00,13,���k��,2.8,-20,87.6,0,0,14,�k��,4.5,10,,
2020/2/7,1:00:00,13,���k��,3,-20.7,86.8,0,0,13,���k��,4.7,45,,
2020/2/7,2:00:00,13,���k��,3.1,-20.9,86.2,0,0,13,���k��,4,42,,
2020/2/7,3:00:00,13,���k��,1.7,-21,85.4,0,0,13,���k��,4.4,11,,
2020/2/7,4:00:00,13,���k��,3.3,-21.5,84.7,0,0,13,���k��,4.2,57,,
2020/2/7,5:00:00,13,���k��,1.7,-21.9,85.4,0,0,14,�k��,3.8,0,,
2020/2/7,6:00:00,13,���k��,2.8,-24.7,82.1,0,0.01,12,��,3.6,2,,
2020/2/7,7:00:00,12,��,3.4,-21.4,86.3,0,0.02,13,���k��,4.4,36,,
2020/2/7,8:00:00,13,���k��,2.5,-19.7,87,0,0.17,12,��,3.9,0,,
2020/2/7,9:00:00,13,���k��,1.4,-15.3,87.3,0,0.36,13,���k��,3.5,2,,
2020/2/7,10:00:00,2,�k��,1.8,-8,67,0,0.53,12,��,2.6,2,,
2020/2/7,11:00:00,2,�k��,1.1,-3.6,65.1,0,0.63,2,�k��,3.3,17,,
2020/2/7,12:00:00,12,��,4.3,-1,43.1,0,0.65,12,��,9.4,26,,
2020/2/7,13:00:00,12,��,5.4,-0.9,46.8,0,0.58,12,��,8.7,53,,
2020/2/7,14:00:00,12,��,4.1,-0.9,48.9,0,0.58,11,���쐼,10.4,9,,
2020/2/7,15:00:00,3,���k��,2.8,-2.2,54.8,0,0.36,13,���k��,8.4,27,,
2020/2/7,16:00:00,3,���k��,1.6,-3.8,57.7,0,0.16,3,���k��,3.9,9,,
2020/2/7,17:00:00,-7.3,#N/A,80.6,0,0.03,,,,,,,,
2020/2/7,18:00:00,13,���k��,1.1,-8.5,79.4,0,0,12,��,1.8,47,,
2020/2/7,19:00:00,12,��,0.4,-11.4,85.3,0,0,1,�k�k��,2.6,40,,
2020/2/7,20:00:00,-11.7,#N/A,85.9,0,0,,,,,,,,
2020/2/7,21:00:00,2,�k��,2.3,-8.9,79.9,0,0,2,�k��,3.2,59,,
2020/2/7,22:00:00,2,�k��,2.6,-6.2,71.4,0,0,2,�k��,3.8,50,,
2020/2/7,23:00:00,13,���k��,1.1,-7.6,82.8,0,0,1,�k�k��,4.3,25,,
2020/2/7,0:00:00,15,�k�k��,2.1,-6.3,77.2,0,0,15,�k�k��,5.4,24,,
2020/2/8,1:00:00,14,�k��,2.3,-6.7,80.9,0,0,15,�k�k��,5.3,6,,
2020/2/8,2:00:00,15,�k�k��,1.2,-6.7,85.3,0,0,14,�k��,4.7,43,,
2020/2/8,3:00:00,14,�k��,2.6,-6.8,89.9,0,0,14,�k��,5.1,47,,
2020/2/8,4:00:00,14,�k��,2.2,-7.8,92.4,0,0,14,�k��,5.5,11,,
2020/2/8,5:00:00,16,�k,0.7,-8.4,91.3,0,0,14,�k��,4,11,,
2020/2/8,6:00:00,13,���k��,1.1,-8.1,88.4,0,0,15,�k�k��,3.7,18,,
2020/2/8,7:00:00,14,�k��,1.5,-8.2,83.3,0,0.01,15,�k�k��,3.8,59,,
2020/2/8,8:00:00,15,�k�k��,3.3,-8,75.8,0,0.08,15,�k�k��,6.1,56,,
2020/2/8,9:00:00,15,�k�k��,2.6,-6.9,64.6,0,0.22,15,�k�k��,6.8,16,,
2020/2/8,10:00:00,16,�k,3.3,-5.8,60.4,0,0.35,16,�k,8,48,,
2020/2/8,11:00:00,1,�k�k��,2.7,-5.4,58.8,0,0.39,15,�k�k��,7.7,4,,
2020/2/8,12:00:00,1,�k�k��,3.7,-4.7,50.2,0,0.48,16,�k,7.2,33,,
2020/2/8,13:00:00,2,�k��,2.3,-4.2,50.7,0,0.49,2,�k��,4.5,6,,
2020/2/8,14:00:00,5,���쓌,2.4,-4.8,59.6,0,0.29,6,�쓌,4.3,53,,
2020/2/8,15:00:00,10,�쐼,0.9,-5.8,75,0,0.17,5,���쓌,4.4,9,,
2020/2/8,16:00:00,13,���k��,1.4,-6,69.2,0,0.08,10,�쐼,2.7,1,,
2020/2/8,17:00:00,7,��쓌,0.7,-6.8,78.8,0,0.02,14,�k��,3.1,12,,
2020/2/8,18:00:00,1,�k�k��,2.5,-8,81,0,0,1,�k�k��,3.5,54,,
2020/2/8,19:00:00,1,�k�k��,2.7,-8.9,68.8,0,0,1,�k�k��,5.7,34,,
2020/2/8,20:00:00,16,�k,2.8,-9.5,57.1,0,0,16,�k,5.2,57,,
2020/2/8,21:00:00,15,�k�k��,2.5,-10.4,51.8,0,0,15,�k�k��,5,38,,
2020/2/8,22:00:00,15,�k�k��,2.3,-11.1,54,0,0,14,�k��,5.8,4,,
2020/2/8,23:00:00,15,�k�k��,2.1,-11.9,56,0,0,15,�k�k��,6.3,21,,
2020/2/8,0:00:00,14,�k��,0.8,-14.6,64.4,0,0,16,�k,4.9,5,,
2020/2/9,1:00:00,14,�k��,1.2,-20,66.4,0,0,13,���k��,2.9,11,,
2020/2/9,2:00:00,15,�k�k��,0.8,-20.7,80.4,0,0,12,��,1.9,21,,
2020/2/9,3:00:00,16,�k,1.3,-19.6,80.6,0,0,1,�k�k��,2.9,16,,
2020/2/9,4:00:00,14,�k��,2.1,-19.4,67.9,0,0,14,�k��,3,59,,
2020/2/9,5:00:00,13,���k��,2.5,-21.8,84.6,0,0,13,���k��,3.8,23,,
2020/2/9,6:00:00,14,�k��,2.1,-19.6,80.3,0,0,13,���k��,4.2,16,,
2020/2/9,7:00:00,12,��,2.8,-19.8,75,0,0.02,13,���k��,4.6,57,,
2020/2/9,8:00:00,13,���k��,1.9,-17.7,69.2,0,0.19,13,���k��,3.9,5,,
2020/2/9,9:00:00,14,�k��,4,-13.8,54.1,0,0.39,14,�k��,6.5,54,,
2020/2/9,10:00:00,15,�k�k��,2.1,-10.6,39.4,0,0.55,14,�k��,5.6,20,,
2020/2/9,11:00:00,15,�k�k��,4.5,-8.9,26.1,0,0.65,15,�k�k��,7.7,56,,
2020/2/9,12:00:00,15,�k�k��,4.7,-8,27.2,0,0.68,15,�k�k��,10,54,,
2020/2/9,13:00:00,16,�k,5.7,-7.6,28.4,0,0.66,16,�k,11.7,56,,
2020/2/9,14:00:00,15,�k�k��,5.8,-8,31.1,0,0.59,15,�k�k��,10.5,56,,
2020/2/9,15:00:00,15,�k�k��,5.9,-8.2,30.5,0,0.45,14,�k��,13.6,50,,
2020/2/9,16:00:00,14,�k��,4.4,-8.6,32.6,0,0.25,15,�k�k��,11.9,43,,
2020/2/9,17:00:00,15,�k�k��,3.3,-9.4,34.7,0,0.06,14,�k��,10.3,29,,
2020/2/9,18:00:00,14,�k��,2.8,-10.6,39.6,0,0,14,�k��,6.8,36,,
2020/2/9,19:00:00,14,�k��,4.6,-10,43.9,0,0,14,�k��,8.2,40,,
2020/2/9,20:00:00,14,�k��,1.4,-11.9,49,0,0,14,�k��,7.4,4,,
2020/2/9,21:00:00,13,���k��,2.5,-15.8,61.3,0,0,12,��,4.4,39,,
2020/2/9,22:00:00,13,���k��,1,-16,58.2,0,0,13,���k��,3.4,12,,
2020/2/9,23:00:00,13,���k��,2.6,-17.9,62.4,0,0,11,���쐼,7.3,11,,
2020/2/9,0:00:00,14,�k��,1.8,-21.7,64.2,0,0,13,���k��,4.1,42,,
2020/2/10,1:00:00,13,���k��,2.5,-21.7,67.6,0,0,14,�k��,3.6,40,,
2020/2/10,2:00:00,13,���k��,2.5,-21.3,71,0,0,13,���k��,4.4,54,,
2020/2/10,3:00:00,13,���k��,3.5,-23.9,72.5,0,0,12,��,4.9,46,,
2020/2/10,4:00:00,13,���k��,1.8,-21.2,73.6,0,0,13,���k��,5.3,4,,
2020/2/10,5:00:00,13,���k��,2.6,-21.3,70.1,0,0,14,�k��,4.2,48,,
2020/2/10,6:00:00,13,���k��,2.5,-21.2,74,0,0,13,���k��,4.5,41,,
2020/2/10,7:00:00,13,���k��,2.8,-20.5,69.3,0,0.03,13,���k��,4,46,,
2020/2/10,8:00:00,12,��,2.3,-19.2,65.5,0,0.14,13,���k��,4.7,17,,
2020/2/10,9:00:00,13,���k��,2.2,-14.5,64,0,0.3,12,��,3,26,,
2020/2/10,10:00:00,11,���쐼,2.1,-7.9,44.2,0,0.37,11,���쐼,3.7,55,,
2020/2/10,11:00:00,9,��쐼,0.8,-4.7,41.4,0,0.49,11,���쐼,3.1,2,,
2020/2/10,12:00:00,9,��쐼,1.9,-3.4,47.2,0,0.55,8,��,4,32,,
2020/2/10,13:00:00,6,�쓌,0.4,-2.2,40.8,0,0.56,7,��쓌,11,57,,
2020/2/10,14:00:00,16,�É�,0.2,-1.7,40.8,0.5,0.53,12,��,2.5,7,,
2020/2/10,15:00:00,16,�É�,0.2,-0.9,44,0.5,0.31,5,���쓌,1,28,,
2020/2/10,16:00:00,11,���쐼,0.6,-3.3,50.5,0,0.25,6,�쓌,7.3,35,,
2020/2/10,17:00:00,14,�k��,2.6,-4.4,55.8,0,0.03,14,�k��,3.7,55,,
2020/2/10,18:00:00,14,�k��,3.5,-3.8,56.5,0,0,14,�k��,7,29,,
2020/2/10,19:00:00,14,�k��,3,-4.5,60.4,0,0,14,�k��,5.4,52,,
2020/2/10,20:00:00,14,�k��,2.2,-5,63.2,0,0,15,�k�k��,5,11,,
2020/2/10,21:00:00,15,�k�k��,1.4,-5.1,62.3,0,0,14,�k��,4.1,17,,
2020/2/10,22:00:00,14,�k��,1.5,-6.7,67.4,0,0,15,�k�k��,3.4,12,,
2020/2/10,23:00:00,14,�k��,1.6,-5.9,69.7,0,0,15,�k�k��,3.1,9,,
2020/2/10,0:00:00,14,�k��,2.4,-6.7,71.9,0,0,14,�k��,3.4,56,,
2020/2/11,1:00:00,13,���k��,1.9,-9.7,79.2,0,0,14,�k��,3.2,8,,
2020/2/11,2:00:00,14,�k��,2,-8.8,73.9,0,0,13,���k��,3.8,46,,
2020/2/11,3:00:00,13,���k��,1.2,-10,77.8,0,0,12,��,3,20,,
2020/2/11,4:00:00,13,���k��,2,-9.9,80.4,0,0,14,�k��,3.1,56,,
2020/2/11,5:00:00,13,���k��,1.8,-10.1,81.6,0,0,14,�k��,3.7,23,,
2020/2/11,6:00:00,1,�k�k��,0.5,-10.2,74.8,0,0,9,��쐼,6.9,19,,
2020/2/11,7:00:00,13,���k��,2.3,-12.7,77.9,0,0.03,14,�k��,3,22,,
2020/2/11,8:00:00,13,���k��,2.3,-12.7,80.1,0,0.18,13,���k��,3.2,57,,
2020/2/11,9:00:00,15,�k�k��,1.7,-5.7,61.2,0,0.38,14,�k��,4.2,8,,
2020/2/11,10:00:00,12,��,0.8,-3.2,53.1,0,0.54,14,�k��,3.3,11,,
2020/2/11,11:00:00,16,�É�,0.2,-1.7,50.1,0,0.64,14,�k��,2.3,2,,
2020/2/11,12:00:00,11,���쐼,2.1,-1.3,43.9,0,0.69,11,���쐼,3.8,57,,
2020/2/11,13:00:00,9,��쐼,2.5,-1,45,0,0.67,9,��쐼,4.3,55,,
2020/2/11,14:00:00,8,��,2.8,-1.6,54,0,0.59,8,��,4.4,59,,
2020/2/11,15:00:00,8,��,2.5,-1.3,61.4,0,0.45,8,��,4.9,41,,
2020/2/11,16:00:00,9,��쐼,1.1,-2.4,71.8,0,0.25,9,��쐼,3.9,13,,
2020/2/11,17:00:00,10,�쐼,1.3,-8,90.3,0,0.06,10,�쐼,2.6,12,,
2020/2/11,18:00:00,12,��,1.5,-8.5,94.9,0,0,12,��,1.9,57,,
2020/2/11,19:00:00,13,���k��,2.1,-13.9,91.4,0,0,13,���k��,2.5,56,,
2020/2/11,20:00:00,12,��,1.8,-12,93,0,0,13,���k��,2.7,6,,
2020/2/11,21:00:00,13,���k��,1.3,-11.8,92.3,0,0,13,���k��,3,41,,
2020/2/11,22:00:00,13,���k��,2,-12.7,90.5,0,0,13,���k��,3.1,57,,
2020/2/11,23:00:00,13,���k��,1.2,-10.9,90.4,0,0,13,���k��,3.4,14,,
2020/2/11,0:00:00,13,���k��,1.4,-12.7,89,0,0,13,���k��,3.9,40,,
2020/2/12,1:00:00,13,���k��,2.1,-13,89.3,0,0,14,�k��,4.7,13,,
2020/2/12,2:00:00,14,�k��,1.8,-12.7,82.9,0,0,14,�k��,3.7,32,,
2020/2/12,3:00:00,13,���k��,1.5,-11.9,89.7,0,0,13,���k��,4.3,18,,
2020/2/12,4:00:00,14,�k��,1.5,-14.1,83.8,0,0,14,�k��,2.8,6,,
2020/2/12,5:00:00,13,���k��,2.7,-13.2,89.3,0,0,13,���k��,4.2,31,,
2020/2/12,6:00:00,13,���k��,2.9,-13.3,85.1,0,0,13,���k��,4.5,5,,
2020/2/12,7:00:00,12,��,3,-11.8,83.4,0,0.02,12,��,4,44,,
2020/2/12,8:00:00,13,���k��,2,-10.5,80.6,0,0.07,13,���k��,3.6,12,,
2020/2/12,9:00:00,13,���k��,1.5,-8.7,78.4,0,0.23,12,��,2.6,56,,
2020/2/12,10:00:00,16,�É�,0.1,-1.7,62.6,0,0.52,12,��,2.5,2,,
2020/2/12,11:00:00,13,���k��,0.3,2.2,59.6,0,0.62,1,�k�k��,2.7,12,,
2020/2/12,12:00:00,9,��쐼,1.1,4.4,53.7,0,0.62,10,�쐼,2.4,59,,
2020/2/12,13:00:00,12,��,1.2,7.4,47.8,0,0.68,11,���쐼,3.6,34,,
2020/2/12,14:00:00,12,��,3.6,7.8,50.5,0,0.71,13,���k��,8.2,47,,
2020/2/12,15:00:00,11,���쐼,5.4,7,57.8,0,0.39,11,���쐼,8.4,55,,
2020/2/12,16:00:00,11,���쐼,3.1,6.8,60.1,0,0.23,11,���쐼,7.8,2,,
2020/2/12,17:00:00,10,�쐼,3.8,6.3,62.2,0,0.06,12,��,7.5,55,,
2020/2/12,18:00:00,10,�쐼,3.1,6.1,59.7,0,0,11,���쐼,7.6,6,,
2020/2/12,19:00:00,11,���쐼,4.2,6.5,59.7,0,0,11,���쐼,7.9,55,,
2020/2/12,20:00:00,10,�쐼,3.1,6.2,59.5,0,0,11,���쐼,7.9,16,,
2020/2/12,21:00:00,9,��쐼,3.2,6.4,61,0,0,10,�쐼,7.6,7,,
2020/2/12,22:00:00,9,��쐼,1.9,6,63.6,0,0,9,��쐼,6,18,,
2020/2/12,23:00:00,10,�쐼,1.8,6,62.3,0,0,9,��쐼,4.9,27,,
2020/2/12,0:00:00,16,�k,1.6,-2.6,83.8,0,0,10,�쐼,4.4,27,,
2020/2/13,1:00:00,15,�k�k��,0.8,-4.4,97.4,0,0,2,�k��,2.5,6,,
2020/2/13,2:00:00,16,�k,0.9,-5.9,97.3,0,0,16,�k,3.7,9,,
2020/2/13,3:00:00,14,�k��,1.4,-6.8,97.6,0,0,13,���k��,2.4,46,,
2020/2/13,4:00:00,13,���k��,2.1,-5,94.1,0,0,14,�k��,4.1,32,,
2020/2/13,5:00:00,12,��,4.3,-5.9,92.1,0,0,12,��,5.2,50,,
2020/2/13,6:00:00,14,�k��,2.5,-3.8,91.9,0,0,12,��,4.6,0,,
2020/2/13,7:00:00,12,��,2.4,-3.4,92.2,0,0.02,14,�k��,5.2,13,,
2020/2/13,8:00:00,13,���k��,2.5,-4,87.6,0,0.11,5,���쓌,5.2,8,,
2020/2/13,9:00:00,14,�k��,0.8,-1.5,89.4,0,0.22,13,���k��,3.4,18,,
2020/2/13,10:00:00,11,���쐼,0.7,4,60.4,0,0.56,12,��,1.8,44,,
2020/2/13,11:00:00,5,���쓌,1.3,5.2,71.9,0,0.49,5,���쓌,2,56,,
2020/2/13,12:00:00,3,���k��,0.7,5.7,72.1,0,0.6,4,��,2.3,36,,
2020/2/13,13:00:00,6,�쓌,0.9,5.9,64.9,0,0.48,5,���쓌,2.5,27,,
2020/2/13,14:00:00,16,�É�,0.1,5.8,64.4,0,0.53,7,��쓌,1.9,16,,
2020/2/13,15:00:00,16,�É�,0.1,5.9,67.1,0,0.37,6,�쓌,2.5,26,,
2020/2/13,16:00:00,16,�É�,0.2,3.2,70.4,0,0.18,2,�k��,1,34,,
2020/2/13,17:00:00,5,���쓌,0.6,1.5,80.3,0,0.05,3,���k��,1.2,57,,
2020/2/13,18:00:00,4,��,0.6,-0.3,87.1,0,0,12,��,9.1,35,,
2020/2/13,19:00:00,15,�k�k��,0.6,-3.2,94,0,0,12,��,2.2,19,,
2020/2/13,20:00:00,13,���k��,0.9,-2.9,95.9,0,0,12,��,2.3,59,,
2020/2/13,21:00:00,13,���k��,2.2,-1.8,95.1,0,0,14,�k��,4.1,55,,
2020/2/13,22:00:00,12,��,2.3,-4.3,92.8,0,0,14,�k��,4,10,,
2020/2/13,23:00:00,16,�k,0.8,-4.4,94.2,0,0,12,��,3,9,,
2020/2/13,0:00:00,13,���k��,1.7,-5.4,91.2,0,0,14,�k��,2.3,59,,
2020/2/14,1:00:00,13,���k��,1.7,-5.1,93,0,0,13,���k��,2.6,44,,
2020/2/14,2:00:00,12,��,1.6,-4.9,94.2,0,0,13,���k��,3,27,,
2020/2/14,3:00:00,13,���k��,1.6,-3.8,92.8,0,0,13,���k��,2.6,6,,
2020/2/14,4:00:00,13,���k��,1.6,-4.4,95.2,0,0,13,���k��,3.1,33,,
2020/2/14,5:00:00,13,���k��,1.4,-4.6,89.5,0,0,13,���k��,3.7,3,,
2020/2/14,6:00:00,12,��,1.6,-4.7,96.7,0,0,11,���쐼,3.4,58,,
2020/2/14,7:00:00,13,���k��,1.1,-6.3,95.1,0,0.03,12,��,4.4,3,,
2020/2/14,8:00:00,14,�k��,0.3,-4,90.5,0,0.18,2,�k��,2,58,,
2020/2/14,9:00:00,12,��,0.7,0.4,81.5,0,0.36,14,�k��,7.4,46,,
2020/2/14,10:00:00,2,�k��,1.5,5.9,64.5,0,0.52,12,��,2.4,0,,
2020/2/14,11:00:00,4,��,1.8,6.6,65.6,0,0.62,4,��,2.4,58,,
2020/2/14,12:00:00,5,���쓌,0.3,9.2,58.3,0,0.66,4,��,2.5,6,,
2020/2/14,13:00:00,7,��쓌,0.4,9.9,51,0,0.65,8,��,2,44,,
2020/2/14,14:00:00,7,��쓌,0.9,7.7,56.8,0,0.55,7,��쓌,2.9,22,,
2020/2/14,15:00:00,7,��쓌,2.4,4.9,64.9,0,0.38,7,��쓌,3.8,55,,
2020/2/14,16:00:00,14,�k��,0.7,4,75.6,0,0.17,8,��,3.4,2,,
2020/2/14,17:00:00,16,�É�,0.2,0.2,85.5,0,0.04,2,�k��,2,3,,
2020/2/14,18:00:00,13,���k��,1.5,-0.5,90.2,0,0,13,���k��,2,55,,
2020/2/14,19:00:00,12,��,1.5,-0.7,91.6,0,0,12,��,2.2,30,,
2020/2/14,20:00:00,12,��,1,-1.4,94.4,0,0,13,���k��,2.3,48,,
2020/2/14,21:00:00,13,���k��,1.9,-2.6,95.7,0,0,13,���k��,3.1,56,,
2020/2/14,22:00:00,7,��쓌,0.7,-3.3,94.5,0,0,14,�k��,4.2,20,,
2020/2/14,23:00:00,2,�k��,2.3,-1.8,94.8,0,0,2,�k��,3.2,51,,
2020/2/14,0:00:00,2,�k��,2.6,-0.4,96.9,0,0,1,�k�k��,4,10,,
2020/2/15,1:00:00,2,�k��,2.2,-0.3,95,0,0,1,�k�k��,4.3,2,,
2020/2/15,2:00:00,3,���k��,1.9,-0.5,94.4,0,0,3,���k��,2.9,44,,
2020/2/15,3:00:00,3,���k��,2.8,-0.6,88.4,0,0,2,�k��,4.6,38,,
2020/2/15,4:00:00,3,���k��,3.4,-1.1,86.8,0,0,3,���k��,5.7,10,,
2020/2/15,5:00:00,4,��,2.6,-1.6,85.2,0,0,4,��,5.6,25,,
2020/2/15,6:00:00,4,��,2.6,-1.9,84,0,0,4,��,4.7,18,,
2020/2/15,7:00:00,4,��,2.8,-2.2,84.4,0,0.01,3,���k��,5,9,,
2020/2/15,8:00:00,5,���쓌,2.1,-2.6,93.4,0,0.04,4,��,4.2,0,,
2020/2/15,9:00:00,4,��,2.6,-2.1,92.1,0,0.17,6,�쓌,3.4,19,,
2020/2/15,10:00:00,6,�쓌,2.8,-1.9,88.1,0,0.32,6,�쓌,4.6,53,,
2020/2/15,11:00:00,6,�쓌,1.8,-1.6,85.9,0,0.37,4,��,4,2,,
2020/2/15,12:00:00,6,�쓌,2,-1.5,87.9,0,0.39,6,�쓌,4.4,48,,
2020/2/15,13:00:00,6,�쓌,2.7,-0.7,83.8,0,0.44,6,�쓌,4.6,52,,
2020/2/15,14:00:00,6,�쓌,2.8,-0.5,78.4,0,0.5,5,���쓌,4.4,7,,
2020/2/15,15:00:00,6,�쓌,1.9,-1.1,85.5,0,0.23,6,�쓌,4.6,3,,
2020/2/15,16:00:00,9,��쐼,1,-1.3,85.3,0,0.22,8,��,2.5,51,,
2020/2/15,17:00:00,16,�É�,0.1,-4.1,95.5,0,0.05,7,��쓌,2.8,42,,
2020/2/15,18:00:00,12,��,1,-5.1,100,0,0,16,�k,2.7,11,,
2020/2/15,19:00:00,13,���k��,1.1,-7.1,97.3,0,0,12,��,2.5,28,,
2020/2/15,20:00:00,16,�k,2.5,-5.7,96.6,0,0,16,�k,4.1,57,,
2020/2/15,21:00:00,15,�k�k��,0.7,-3.8,74.4,0,0,16,�k,4.4,5,,
2020/2/15,22:00:00,12,��,1.3,-4,73.5,0,0,15,�k�k��,2.5,9,,
2020/2/15,23:00:00,-3.7,#N/A,69.4,0,0,,,,,,,,
2020/2/15,0:00:00,2,�k��,1.5,-3.4,69.7,0,0,4,��,3.2,25,,
2020/2/16,1:00:00,2,�k��,1.8,-3.1,77.1,0,0,2,�k��,2.7,57,,
2020/2/16,2:00:00,3,���k��,1,-3,81.9,0,0,1,�k�k��,2.8,6,,
2020/2/16,3:00:00,3,���k��,2.5,-3.5,80,0,0,3,���k��,3.5,59,,
2020/2/16,4:00:00,3,���k��,1.6,-3.8,81.6,0,0,4,��,4,25,,
2020/2/16,5:00:00,3,���k��,1.7,-4.2,86,0,0,3,���k��,4.5,3,,
2020/2/16,6:00:00,4,��,2.1,-4.5,92.1,0,0,4,��,3.4,34,,
2020/2/16,7:00:00,3,���k��,2.6,-4.3,78.1,0,0.01,3,���k��,4.3,53,,
2020/2/16,8:00:00,3,���k��,4.4,-4.7,74.5,0,0.07,4,��,7.4,49,,
2020/2/16,9:00:00,3,���k��,3.5,-5,74,0,0.14,3,���k��,7.3,24,,
2020/2/16,10:00:00,3,���k��,3.2,-4.8,73.1,0,0.15,3,���k��,5.8,44,,
2020/2/16,11:00:00,3,���k��,3,-4.8,73.5,0,0.19,4,��,5.9,6,,
2020/2/16,12:00:00,4,��,3.4,-4.7,71.6,0,0.28,4,��,5.1,43,,
2020/2/16,13:00:00,4,��,3.4,-4.7,69,0,0.31,4,��,5.2,31,,
2020/2/16,14:00:00,3,���k��,2.6,-4.6,69.7,0,0.26,4,��,4.9,16,,
2020/2/16,15:00:00,3,���k��,2.6,-5.2,79,0,0.15,3,���k��,4.6,6,,
2020/2/16,16:00:00,3,���k��,1.6,-5.9,93,0,0.07,3,���k��,3.4,1,,
2020/2/16,17:00:00,2,�k��,1.6,-6,95.3,0,0.02,2,�k��,2.7,50,,
2020/2/16,18:00:00,2,�k��,1.5,-6,95.6,0,0,1,�k�k��,3.7,44,,
2020/2/16,19:00:00,1,�k�k��,1.2,-6,95.2,0,0,1,�k�k��,2.9,58,,
2020/2/16,20:00:00,16,�k,1,-6.1,96,0,0,1,�k�k��,2.4,2,,
2020/2/16,21:00:00,1,�k�k��,3.1,-6.5,95,0,0,1,�k�k��,6.2,48,,